Powrót do katalogu

STARLINK-4139

AktywnyŁącznośćVLEO
NORAD 52879·PAYLOAD·🇺🇸 United States

Wystrzelony Jun 17, 2022 z Cape Canaveral Space Force Station

Loading…

Następne Przeloty (najbliższe 24 godziny)

TLE

ŚwieżeSource: CelesTrak SupGP

Epoka: Sep 15, 2026, 01:17 UTC

1 52879C 22062BB  26258.05395833 -.00033712  00000+0 -99588-3 0  2589
2 52879  53.1582 228.9233 0001754  83.5298 281.8984 15.34411066    10

Śledź STARLINK-4139 w czasie rzeczywistym z AllMySat

Download on the App Store